Regional Weather Roundup
Issued by NWS

Home | Current Version | Previous Version | Text Only | Print | Product List | Glossary Off
Versions: 1 2 3 4 5 6 7 8 9 10 11 12 13 14 15 16 17 18 19 20 21 22 23 24 25 26 27

000
ASUS45 KCYS 122210
RWRWY

WYOMING REGIONAL WEATHER ROUNDUP
NATIONAL WEATHER SERVICE CHEYENNE WY
300 PM MST TUE DEC 12 2017

NOTE:  "FAIR" INDICATES FEW OR NO CLOUDS BELOW 12,000 FEET
WITH NO SIGNIFICANT WEATHER AND/OR OBSTRUCTIONS TO VISIBILITY.

WYZ001-122300-
YELLOWSTONE NATIONAL PARK

CITY           SKY/WX    TMP DP  RH WIND       PRES   REMARKS
LK YELLOWSTONE   N/A     30  18  60 CALM      30.39F
W YELLOWSTONE  NOT AVBL

$$
WYZ002>013-054>058-071-098>099-122300-
NORTHERN WYOMING

CITY           SKY/WX    TMP DP  RH WIND       PRES   REMARKS
JACKSON        FAIR      36  16  44 CALM      30.40F
CODY           FAIR      62  -4   7 W21G33    30.13F
GREYBULL       FAIR      48  19  31 CALM      30.15F
WORLAND        FAIR      51  25  36 NE3       30.16F
SHERIDAN       FAIR      66  15  14 W8        30.02F
BUFFALO        FAIR      66   7  10 CALM      30.07F
GILLETTE       FAIR      60  21  22 SW9       30.03F
HULETT         FAIR      50  23  34 SW10      30.03S
NEWCASTLE      FAIR      55  18  22 N7        30.06F

$$
WYZ014>020-022>026-101>103-122300-
CENTRAL WYOMING

CITY           SKY/WX    TMP DP  RH WIND       PRES   REMARKS
BIG PINEY      FAIR      56   0  10 NW10G16   30.36F
PINEDALE       FAIR      52  -4  10 NW15      30.36F
DUBOIS         FAIR      52  -6   9 MISG      30.29F
LANDER         FAIR      43  25  49 NE5       30.21F
RIVERTON       FAIR      38  21  50 E6        30.23F WCI  33
CASPER         FAIR      47  19  33 SW21      30.19F
DOUGLAS        FAIR      56  23  27 NW14      30.12F

$$
WYZ021-027>030-104>119-122300-
SOUTHERN WYOMING

CITY           SKY/WX    TMP DP  RH WIND       PRES   REMARKS
EVANSTON         N/A     52  16  24 SW14      30.41F
FORT BRIDGER   FAIR      56   3  11 W14       30.42F
ROCK SPRINGS   FAIR      50   3  14 W10       30.35F
DIXON          FAIR      41  22  47 CALM      30.40F
RAWLINS        FAIR      46  16  30 W14G21    30.32F
SARATOGA       FAIR      45  23  42 CALM      30.35F
LARAMIE        FAIR      54   9  16 W16       30.26F
CHEYENNE       FAIR      59   9  13 NW24G37   30.19F
TORRINGTON     FAIR      64  17  16 W14G22    30.08F
PINE BLUFFS    FAIR      63  10  13 NW22G30   30.15F

$$




USA.gov is the U.S. government's official web portal to all federal, state and local government web resources and services.